Regional Weather Roundup
Issued by NWS Sioux Falls, SD

Home | Current Version | Previous Version | Graphics & Text | Print | Product List | Glossary Off
Versions: 1 2 3 4 5 6 7 8 9 10 11 12 13 14 15 16 17 18 19 20 21 22 23 24 25 26 27 28 29 30 31 32 33 34 35 36 37 38 39 40 41 42 43 44 45 46 47 48 49 50

000
ASUS43 KFSD 292102
RWRFSD

WEATHER ROUNDUP FOR SE SOUTH DAKOTA/SW MINNESOTA/NW IOWA
NATIONAL WEATHER SERVICE SIOUX FALLS SD
400 PM CDT SUN MAR 29 2015

NOTE: "FAIR" INDICATES FEW OR NO CLOUDS BELOW 12,000 FEET WITH NO
SIGNIFICANT WEATHER AND OR OBSTRUCTIONS TO VISIBILITY.


SDZ038>040-050-052>070-292200-
SOUTHEAST SOUTH DAKOTA

CITY           SKY/WX    TMP DP  RH WIND       PRES   REMARKS
CHAMBERLAIN    NOT AVBL
HURON          SUNNY     60  22  23 NW24G36   30.02S
MADISON        FAIR      55  23  28 NW30G38   30.00R
MITCHELL       SUNNY     62  23  22 N21G32    30.04S
SIOUX FALLS    MOSUNNY   59  23  25 NW26G37   29.99R
WINNER         FAIR      62  19  19 NW18      30.10F
YANKTON        SUNNY     61  23  23 N23G30    30.05R
$$

MNZ071-072-080-081-089-090-097-098-292200-
SOUTHWEST MINNESOTA

CITY           SKY/WX    TMP DP  RH WIND       PRES   REMARKS
FAIRMONT       SUNNY     57  27  30 NW33G41   29.87R
JACKSON        SUNNY     57  21  24 NW32G47   29.90S
LUVERNE        SUNNY     59  19  21 N31G38    29.97R
MARSHALL       SUNNY     55  25  30 NW32G43   29.92R
MONTEVIDEO     MOSUNNY   57  30  35 N30G39    29.91R
PIPESTONE      MOSUNNY   55  19  24 N30G41    29.95R
REDWOOD FALLS  MOSUNNY   56  31  38 NW29G41   29.88R
TRACY          SUNNY     58  28  32 NW31G40   29.92R
WINDOM         SUNNY     55  25  30 NW30G41   29.90R
WORTHINGTON    SUNNY    N/A N/A N/A NW29G40   29.94R
$$

IAZ001>003-012>014-020>022-031-032-NEZ013-014-SDZ071-292200-
NORTHWEST IOWA

CITY           SKY/WX    TMP DP  RH WIND       PRES   REMARKS
DENISON        SUNNY     59  30  33 NW23G32   29.96S
ESTHERVILLE    SUNNY     57  23  26 N35G46    29.90R
LE MARS        SUNNY     61  27  27 NW26G33   30.00R
ORANGE CITY    SUNNY     61  18  18 N24G33    29.98R
SIOUX CITY     SUNNY     62  26  25 NW26G37   29.99R
SPENCER        SUNNY     60  25  26 NW25G39   29.93R
$$

ABBREVIATIONS USED IN REMARKS
   TC - TEMPERATURE IN CELSIUS
  WCI - WIND CHILL INDEX
   HX - HEAT INDEX
  VSB - VISIBILITY




USA.gov is the U.S. government's official web portal to all federal, state and local government web resources and services.